Location: Demmingen
(48.6757°N, 10.4375°E)
Time: 20:16:23
(UTC+00:00)

SL-16 R/B - Pass Details

Date: 14 August 2024
Orbit: 842 x 845 km, 71.0° (Epoch: 10 September)

Event Time Altitude Azimuth Distance (km) Brightness Sun altitude
Exits shadow 01:41:15 - 284° (WNW) 3,258 5.0 -20.0°
Reaches altitude 10° 01:45:08 10° 313° (NW) 2,473 4.7 -19.6°
Maximum altitude 01:47:03 12° 333° (NNW) 2,358 4.8 -19.4°
Drops below altitude 10° 01:48:59 10° 353° (N) 2,477 5.3 -19.2°
Sets 01:53:26 0° 26° (NNE) 3,416 6.9 -18.8°
